Weather History for Brussels, Belgium

Change the Weather History Date:

Sunday, January 19, 2014

  Actual Average Record
Temperature  
Mean Temperature 46 °F -  
Max Temperature 50 °F 42 °F 55 °F (2007)
Min Temperature 41 °F 34 °F 24 °F (2013)
Degree Days  
Heating Degree Days 20    
Moisture  
Dew Point 39 °F    
Average Humidity 74    
Maximum Humidity 87    
Minimum Humidity 61    
Precipitation  
Precipitation 0.00 in - - ()
Sea Level Pressure  
Sea Level Pressure 29.46 in    
Wind  
Wind Speed 6 mph ()    
Max Wind Speed 12 mph    
Max Gust Speed -    
Visibility 9.4 miles    
Events      
Averages and records for this station are not official NWS values.
T = Trace of Precipitation, MM = Missing Value Source: Averaged Metar Reports

Daily Weather History Graph

Daily Weather History Graph

Search for Another Location

Airport:

Trip Planner

Search our weather history database for the weather conditions in past years. The results will help you decide how hot, cold, wet, or windy it might be!

Date:

Astronomy

Jan. 19, 2014 Rise Set
Actual Time 8:34 AM CET 5:10 PM CET
Civil Twilight 7:57 AM CET 5:48 PM CET
Nautical Twilight 7:16 AM CET 6:29 PM CET
Astronomical Twilight 6:37 AM CET 7:08 PM CET
Moon 9:01 PM CET (1/19) 9:32 AM CET (1/19)
Length of Visible Light 9h 50m
Length of Day
8h 36m
Waning Gibbous, 91% of the Moon is Illuminated
Jan 19
Waning Gibbous
Jan 24
Last Quarter
Jan 30
New
Feb 6
First Quarter
Feb 15
Full

Hourly Weather History & Observations

Time (CET) Temp. Windchill Dew Point Humidity Pressure Visibility Wind Dir Wind Speed Gust Speed Precip Events Conditions
12:00 AM 42 °F - 36 °F 70% 29.42 in 19 mi ESE 6.7 mph - -   Scattered Clouds
12:20 AM 42.8 °F 38.0 °F 35.6 °F 76% 29.42 in - SE 8.1 mph - N/A   Clear
12:50 AM 42.8 °F 38.0 °F 35.6 °F 76% 29.39 in - SE 8.1 mph - N/A   Clear
1:00 AM 44 °F - 36 °F 64% 29.42 in 19 mi SE 6.7 mph - -   Scattered Clouds
1:20 AM 42.8 °F 39.3 °F 35.6 °F 76% 29.39 in - SE 5.8 mph - N/A   Clear
1:50 AM 42.8 °F 38.0 °F 35.6 °F 76% 29.39 in 6.2 mi SE 8.1 mph - N/A   Partly Cloudy
2:00 AM 44 °F - 36 °F 65% 29.42 in 19 mi SE 6.7 mph - -   Mostly Cloudy
2:20 AM 44.6 °F 40.2 °F 37.4 °F 76% 29.39 in 6.2 mi SE 8.1 mph - N/A   Partly Cloudy
2:50 AM 44.6 °F 40.2 °F 35.6 °F 71% 29.39 in 6.2 mi SSE 8.1 mph - N/A   Partly Cloudy
3:00 AM 45 °F - 36 °F 63% 29.41 in 19 mi SSE 8.9 mph - -   Mostly Cloudy
3:20 AM 44.6 °F 40.2 °F 37.4 °F 76% 29.39 in 6.2 mi SE 8.1 mph - N/A   Partly Cloudy
3:50 AM 44.6 °F 40.2 °F 37.4 °F 76% 29.39 in 6.2 mi SE 8.1 mph - N/A   Partly Cloudy
4:00 AM 45 °F - 37 °F 66% 29.40 in 19 mi SE 8.9 mph - -   Overcast
4:20 AM 44.6 °F 40.7 °F 37.4 °F 76% 29.39 in 6.2 mi SE 6.9 mph - N/A   Partly Cloudy
4:50 AM 44.6 °F 39.7 °F 37.4 °F 76% 29.36 in 6.2 mi ESE 9.2 mph - N/A   Partly Cloudy
5:00 AM 44 °F - 37 °F 68% 29.39 in 19 mi ESE 8.9 mph - -   Overcast
5:20 AM 44.6 °F 40.2 °F 35.6 °F 71% 29.36 in - ESE 8.1 mph - N/A   Clear
5:50 AM 44.6 °F 40.2 °F 35.6 °F 71% 29.36 in - SE 8.1 mph - N/A   Clear
6:00 AM 44 °F - 36 °F 66% 29.39 in 19 mi SE 8.9 mph - -   Overcast
6:20 AM 44.6 °F 39.7 °F 35.6 °F 71% 29.36 in - SE 9.2 mph - N/A   Clear
6:50 AM 44.6 °F 39.7 °F 35.6 °F 71% 29.36 in - ESE 9.2 mph - N/A   Clear
7:00 AM 45 °F - 36 °F 61% 29.38 in 19 mi ESE 8.9 mph - -   Overcast
7:20 AM 44.6 °F 40.2 °F 35.6 °F 71% 29.39 in 6.2 mi SE 8.1 mph - N/A   Mostly Cloudy
7:50 AM 44.6 °F 41.4 °F 35.6 °F 71% 29.39 in 6.2 mi SSE 5.8 mph - N/A   Scattered Clouds
8:00 AM 44 °F - 36 °F 64% 29.39 in 31 mi SSE 6.7 mph - -   Mostly Cloudy
8:20 AM 44.6 °F 40.7 °F 35.6 °F 71% 29.39 in - ESE 6.9 mph - N/A   Clear
8:50 AM 44.6 °F 40.2 °F 35.6 °F 71% 29.39 in - SE 8.1 mph - N/A   Clear
9:00 AM 44 °F - 36 °F 64% 29.41 in 31 mi SE 6.7 mph - -   Mostly Cloudy
9:20 AM 44.6 °F 42.2 °F 37.4 °F 76% 29.39 in - SE 4.6 mph - N/A   Clear
9:50 AM 44.6 °F 42.2 °F 37.4 °F 76% 29.42 in - SSE 4.6 mph - N/A   Clear
10:00 AM 45 °F - 38 °F 67% 29.43 in 28 mi SSE 4.5 mph - -   Mostly Cloudy
10:20 AM 46.4 °F 42.4 °F 37.4 °F 71% 29.42 in 6.2 mi SSE 8.1 mph - N/A   Mostly Cloudy
10:50 AM 46.4 °F 42.9 °F 37.4 °F 71% 29.42 in 6.2 mi SSE 6.9 mph - N/A   Mostly Cloudy
11:00 AM 46 °F - 38 °F 65% 29.44 in 22 mi SSE 6.7 mph - -   Mostly Cloudy
11:20 AM 46.4 °F 43.5 °F 39.2 °F 76% 29.44 in 6.2 mi South 5.8 mph - N/A   Mostly Cloudy
11:50 AM 48.2 °F - 41.0 °F 76% 29.44 in 6.2 mi South 5.8 mph - N/A   Mostly Cloudy
12:00 PM 47 °F - 40 °F 70% 29.46 in 16 mi South 6.7 mph - -   Mostly Cloudy
12:20 PM 48.2 °F - 41.0 °F 76% 29.44 in 6.2 mi SSW 9.2 mph - N/A   Scattered Clouds
12:50 PM 48.2 °F - 41.0 °F 76% 29.44 in 6.2 mi SSW 9.2 mph - N/A   Partly Cloudy
1:00 PM 49 °F - 42 °F 67% 29.46 in 16 mi SSW 8.9 mph - -   Scattered Clouds
1:20 PM 50.0 °F - 41.0 °F 71% 29.44 in 6.2 mi SW 10.4 mph - N/A   Partly Cloudy
1:50 PM 48.2 °F - 39.2 °F 71% 29.47 in 6.2 mi SW 11.5 mph - N/A   Scattered Clouds
2:00 PM 49 °F - 40 °F 62% 29.48 in 22 mi SW 11.2 mph - -   Partly Cloudy
2:20 PM 48.2 °F - 41.0 °F 76% 29.47 in 6.2 mi SW 8.1 mph - N/A   Mostly Cloudy
2:50 PM 48.2 °F - 41.0 °F 76% 29.47 in 6.2 mi SSW 5.8 mph - N/A   Mostly Cloudy
3:00 PM 49 °F - 41 °F 66% 29.49 in 22 mi SW 6.7 mph - -   Mostly Cloudy
3:20 PM 48.2 °F - 41.0 °F 76% 29.47 in 6.2 mi WSW 5.8 mph - N/A   Mostly Cloudy
3:50 PM 48.2 °F - 41.0 °F 76% 29.47 in 6.2 mi WSW 4.6 mph - N/A   Mostly Cloudy
4:00 PM 49 °F - 42 °F 68% 29.50 in 25 mi WSW 4.5 mph - -   Mostly Cloudy
4:20 PM 48.2 °F - 42.8 °F 82% 29.50 in 6.2 mi SW 5.8 mph - N/A   Mostly Cloudy
4:50 PM 48.2 °F - 42.8 °F 82% 29.50 in 6.2 mi SSW 4.6 mph - N/A   Mostly Cloudy
5:00 PM 48 °F - 42 °F 72% 29.52 in 25 mi SSW 4.5 mph - -   Mostly Cloudy
5:20 PM 48.2 °F - 42.8 °F 82% 29.50 in 6.2 mi WSW 5.8 mph - N/A   Mostly Cloudy
5:50 PM 46.4 °F 42.9 °F 41.0 °F 81% 29.53 in 6.2 mi WSW 6.9 mph - N/A   Mostly Cloudy
6:00 PM 47 °F - 42 °F 75% 29.54 in 25 mi WSW 6.7 mph - -   Mostly Cloudy
6:20 PM 46.4 °F 42.9 °F 41.0 °F 81% 29.53 in 6.2 mi WSW 6.9 mph - N/A   Mostly Cloudy
6:50 PM 46.4 °F 44.3 °F 41.0 °F 81% 29.53 in 6.2 mi West 4.6 mph - N/A   Mostly Cloudy
7:00 PM 46 °F - 41 °F 76% 29.56 in 25 mi West 4.5 mph - -   Mostly Cloudy
7:20 PM 46.4 °F - 41.0 °F 81% 29.53 in 6.2 mi West 2.3 mph - N/A   Mostly Cloudy
7:50 PM 46.4 °F 44.3 °F 41.0 °F 81% 29.56 in 6.2 mi WNW 4.6 mph - N/A   Mostly Cloudy
8:00 PM 46 °F - 41 °F 77% 29.57 in 19 mi WNW 4.5 mph - -   Overcast
8:20 PM 46.4 °F - 41.0 °F 81% 29.56 in 6.2 mi Variable 2.3 mph - N/A   Mostly Cloudy
8:50 PM 44.6 °F - 41.0 °F 87% 29.56 in 6.2 mi Variable 1.2 mph - N/A   Mostly Cloudy
9:00 PM 45 °F - 41 °F 80% 29.59 in 16 mi WSW 2.2 mph - -   Overcast
9:20 PM 44.6 °F - 39.2 °F 81% 29.56 in 6.2 mi Variable 1.2 mph - N/A   Mostly Cloudy
9:50 PM 44.6 °F - 39.2 °F 81% 29.59 in 6.2 mi Variable 1.2 mph - N/A   Mostly Cloudy
10:00 PM 45 °F - 38 °F 70% 29.60 in 16 mi Calm Calm - -   Overcast
10:20 PM 44.6 °F - 39.2 °F 81% 29.59 in 6.2 mi WNW 2.3 mph - N/A   Mostly Cloudy
10:50 PM 44.6 °F - 39.2 °F 81% 29.59 in 6.2 mi WNW 1.2 mph - N/A   Mostly Cloudy
11:00 PM 45 °F - 39 °F 72% 29.60 in 16 mi WNW 2.2 mph - -   Overcast
11:20 PM 44.6 °F - 39.2 °F 81% 29.59 in 6.2 mi WNW 2.3 mph - N/A   Mostly Cloudy
11:50 PM 44.6 °F - 39.2 °F 81% 29.59 in 6.2 mi NW 1.2 mph - N/A   Mostly Cloudy